SCP
0 0 0 -0 -0 -0 0 0 0 0 0 0 0 0 0 0 0 0 0 0 0 0
0 0 -0 -0 -0 -0 -0 0 0 0 0 0 0 0 0 0 0 0 0 0 0 0
0 0 0 0 -0 -0 -0 -0 -0 -0 0 0 0 0 0 0 0 0 0 0 0 0
0 0 0 0 0 0 0 0 -0 -0 -0 0 0 0 0 0 0 0 0 0 0 0
0 0 0 0 -0 -0 -0 -0 0 -0 -0 -0 -0 -0 -0 -0 0 0 0 0 0 0
0 0 0 0 0 0 0 -0 -0 -0 -0 -0 0 -0 -0 -0 0 0 0 0 0 0
0 0 0 0 0 0 0 0 0 -0 0 0 0 0 0 0 0 0 0 0 0 0
0 0 0 0 0 0 0 0 0 0 0 0 0 0 0 0 0 0 0 0 0 0
0 0 0 0 0 0 0 0 0 0 0 -0 0 -0 -0 0 0 0 0 0 0 0
0 0 0 0 0 0 0 0 0 0 0 0 0 -0 0 0 0 0 0 0 0 0
0 0 0 0 0 0 0 0 0 0 0 0 0 0 0 0 0 0 0 0 0 0
0 0 0 0 0 0 0 0 0 0 0 0 0 0 0 0 0 0 0 0 0 0
0 0 0 0 0 0 0 0 0 0 0 0 0 0 0 0 0 0 0 0 0 0
0 0 0 0 0 0 0 0 0 0 0 0 0 0 0 0 0 0 0 0 0 0
Wind_Speed_500mb
27 28 29 29 29 32 32 27 22 21 21 35 37 36 22 17 15 16 15 12 10 8
34 29 27 30 26 26 30 27 24 29 29 38 32 30 24 19 19 18 19 21 20 16
36 36 35 33 33 34 35 36 37 39 40 34 29 26 21 22 27 25 27 23 18 18
29 29 28 29 32 31 30 29 27 28 27 29 30 33 29 32 30 23 26 27 24 28
28 28 29 31 32 33 33 33 33 34 34 35 33 31 28 30 32 29 33 36 34 36
23 24 27 30 31 29 28 27 26 23 23 25 27 28 28 28 32 35 37 38 35 35
19 19 19 21 22 21 19 18 19 20 21 22 23 23 25 27 30 32 34 34 32 32
14 16 15 14 13 14 17 17 18 18 19 21 22 26 28 30 30 31 33 34 31 28
14 12 12 11 10 10 11 14 16 17 16 17 21 26 26 25 27 29 27 28 28 26
15 13 13 13 13 11 10 9 9 9 11 14 19 22 21 21 22 23 25 24 24 22
20 18 14 13 13 15 13 11 9 7 6 10 15 18 19 20 19 19 20 19 19 19
23 21 18 16 15 13 11 10 9 7 7 10 13 15 15 16 19 18 15 16 15 14
27 24 20 18 18 16 13 13 13 11 10 10 13 14 15 16 17 18 17 16 15 14
30 27 24 23 21 19 17 16 17 16 14 12 14 17 18 17 18 19 20 20 19 18
Wind_Direction_500mb
95 101 99 110 120 121 120 123 132 162 195 201 203 193 147 188 165 166 169 168 159 161
83 91 98 98 108 121 113 121 148 158 162 155 151 150 155 162 159 145 132 124 118 123
88 85 89 93 97 100 101 111 123 129 132 132 141 144 146 141 127 128 122 117 118 120
93 95 99 101 102 106 114 118 121 125 127 126 126 121 129 127 122 126 124 118 121 117
89 95 102 103 105 103 108 109 109 113 119 123 125 127 131 130 128 131 127 124 122 116
91 94 99 103 104 105 106 109 112 116 122 124 126 128 131 131 131 129 126 122 118 111
112 107 104 102 104 107 108 112 118 119 119 121 122 123 121 125 124 124 121 118 117 114
126 121 113 105 104 111 113 119 119 119 128 130 131 132 133 133 131 131 131 130 127 118
150 142 132 124 119 120 123 127 130 134 137 139 142 138 138 140 140 139 134 129 125 125
177 172 161 158 151 149 142 141 137 134 140 147 150 144 140 141 146 149 146 148 146 141
192 191 184 179 170 163 164 164 166 161 145 146 155 159 159 161 159 162 166 161 158 155
204 202 197 192 188 188 184 181 182 178 167 171 177 176 178 180 184 183 183 184 181 176
212 209 204 201 200 200 203 200 199 198 199 196 195 198 203 208 204 201 206 209 209 210
218 220 218 211 208 213 219 219 218 216 216 216 221 218 219 226 230 229 225 224 231 232
Wind_Speed_850mb
27 28 29 29 29 32 32 27 22 21 21 35 37 36 22 17 15 16 15 12 10 8
34 29 27 30 26 26 30 27 24 29 29 38 32 30 24 19 19 18 19 21 20 16
36 36 35 33 33 34 35 36 37 39 40 34 29 26 21 22 27 25 27 23 18 18
29 29 28 29 32 31 30 29 27 28 27 29 30 33 29 32 30 23 26 27 24 28
28 28 29 31 32 33 33 33 33 34 34 35 33 31 28 30 32 29 33 36 34 36
23 24 27 30 31 29 28 27 26 23 23 25 27 28 28 28 32 35 37 38 35 35
19 19 19 21 22 21 19 18 19 20 21 22 23 23 25 27 30 32 34 34 32 32
14 16 15 14 13 14 17 17 18 18 19 21 22 26 28 30 30 31 33 34 31 28
14 12 12 11 10 10 11 14 16 17 16 17 21 26 26 25 27 29 27 28 28 26
15 13 13 13 13 11 10 9 9 9 11 14 19 22 21 21 22 23 25 24 24 22
20 18 14 13 13 15 13 11 9 7 6 10 15 18 19 20 19 19 20 19 19 19
23 21 18 16 15 13 11 10 9 7 7 10 13 15 15 16 19 18 15 16 15 14
27 24 20 18 18 16 13 13 13 11 10 10 13 14 15 16 17 18 17 16 15 14
30 27 24 23 21 19 17 16 17 16 14 12 14 17 18 17 18 19 20 20 19 18
Wind_Direction_850mb
95 101 99 110 120 121 120 123 132 162 195 201 203 193 147 188 165 166 169 168 159 161
83 91 98 98 108 121 113 121 148 158 162 155 151 150 155 162 159 145 132 124 118 123
88 85 89 93 97 100 101 111 123 129 132 132 141 144 146 141 127 128 122 117 118 120
93 95 99 101 102 106 114 118 121 125 127 126 126 121 129 127 122 126 124 118 121 117
89 95 102 103 105 103 108 109 109 113 119 123 125 127 131 130 128 131 127 124 122 116
91 94 99 103 104 105 106 109 112 116 122 124 126 128 131 131 131 129 126 122 118 111
112 107 104 102 104 107 108 112 118 119 119 121 122 123 121 125 124 124 121 118 117 114
126 121 113 105 104 111 113 119 119 119 128 130 131 132 133 133 131 131 131 130 127 118
150 142 132 124 119 120 123 127 130 134 137 139 142 138 138 140 140 139 134 129 125 125
177 172 161 158 151 149 142 141 137 134 140 147 150 144 140 141 146 149 146 148 146 141
192 191 184 179 170 163 164 164 166 161 145 146 155 159 159 161 159 162 166 161 158 155
204 202 197 192 188 188 184 181 182 178 167 171 177 176 178 180 184 183 183 184 181 176
212 209 204 201 200 200 203 200 199 198 199 196 195 198 203 208 204 201 206 209 209 210
218 220 218 211 208 213 219 219 218 216 216 216 221 218 219 226 230 229 225 224 231 232